Retour au catalogue

STARLINK-11744

ActifCommunicationsVLEO
NORAD 64380·PAYLOAD·🇺🇸 United States

Lancé Jun 13, 2025 depuis Cape Canaveral Space Force Station

Loading…

Prochains Passages (prochaines 24 heures)

TLE

FraisSource: CelesTrak SupGP

Époque: Sep 14, 2026, 20:49 UTC

1 64380C 25127L   26257.86784722  .00098989  00000+0  76861-3 0  2574
2 64380  43.0008  24.3641 0001728 276.1805  86.4488 15.70796454    12

Suivez STARLINK-11744 en temps réel avec AllMySat

Download on the App Store